Location: Mahannah Oil Field
(37.4664°N, 96.6003°W)
Time: 01:51:29
(UTC+00:00)

deb Explorer IX - Pass Details

Date: 26 January 2021
Orbit: 537 x 1102 km, 38.8° (Epoch: 25 February)

Event Time Altitude Azimuth Distance (km) Brightness Sun altitude
Rises 04:01:14 0° 284° (WNW) 3,365 ? -50.9°
Enters shadow 04:02:26 - 283° (WNW) 2,910 ? -51.1°
Reaches altitude 10° 04:03:59 10° 280° (W) 2,330 - -51.4°
Maximum altitude 04:09:13 51° 205° (SSW) 863 - -52.4°
Drops below altitude 10° 04:13:41 10° 129° (SE) 1,990 - -53.2°
Sets 04:15:53 0° 124° (SE) 2,829 - -53.6°
